Powrót do katalogu

COSMOS 2251 DEB

AktywnyLEO
NORAD 33973·DEBRIS·🇷🇺 Russia

Wystrzelony Jun 16, 1993 z Plesetsk Cosmodrome

Loading…

Następne Przeloty (najbliższe 24 godziny)

TLE

ŚwieżeSource: Space-Track

Epoka: Sep 14, 2026, 10:35 UTC

1 33973U 93036FG  26257.44147392  .00000204  00000-0  64611-4 0  9990
2 33973  74.0083 308.0167 0044929  59.3515 313.6552 14.45611539925842

Śledź COSMOS 2251 DEB w czasie rzeczywistym z AllMySat

Download on the App Store